����,���ϕ���(m/s),���ϕ���,�ő�u�ԕ���(m/s),�ő啗��������,�C��(��),���x(%),10���Ԉړ��ώZ�J��(mm),1���Ԉړ��ώZ�J��(mm),���J��(mm),�݌v�J��(mm)
2023-04-03T00:00:00+09:00,0.5,���k��,1.6,��,8,85.9,0,0,0,0
2023-04-03T00:01:00+09:00,0.5,���k��,1.6,��,7.9,85,0,0,0,0
2023-04-03T00:02:00+09:00,0.5,���k��,1.6,��,7.7,84.6,0,0,0,0
2023-04-03T00:03:00+09:00,0.6,���k��,1.6,��,7.7,84.8,0,0,0,0
2023-04-03T00:04:00+09:00,0.6,���k��,1.7,��,7.9,85.8,0,0,0,0
2023-04-03T00:05:00+09:00,0.6,���k��,1.7,��,7.9,85.9,0,0,0,0
2023-04-03T00:06:00+09:00,0.6,���k��,1.7,��,7.6,84.8,0,0,0,0
2023-04-03T00:07:00+09:00,0.6,���k��,1.7,��,7.6,84.8,0,0,0,0
2023-04-03T00:08:00+09:00,0.6,���k��,1.7,��,7.8,85.7,0,0,0,0
2023-04-03T00:09:00+09:00,0.6,���k��,1.7,��,7.9,86.3,0,0,0,0
2023-04-03T00:10:00+09:00,0.6,���k��,1.7,��,7.9,85.9,0,0,0,0
2023-04-03T00:11:00+09:00,0.6,�k��,1.7,��,7.7,85.4,0,0,0,0
2023-04-03T00:12:00+09:00,0.6,�k��,1.7,��,7.5,84.8,0,0,0,0
2023-04-03T00:13:00+09:00,0.6,�k��,1.7,��,7.5,85.1,0,0,0,0
2023-04-03T00:14:00+09:00,0.5,�k��,1.4,��,7.5,86,0,0,0,0
2023-04-03T00:15:00+09:00,0.6,�k��,2,���k��,7.7,86.7,0,0,0,0
2023-04-03T00:16:00+09:00,0.7,���k��,2,���k��,7.9,87.2,0,0,0,0
2023-04-03T00:17:00+09:00,0.8,���k��,2,���k��,7.8,86.4,0,0,0,0
2023-04-03T00:18:00+09:00,0.8,���k��,2,���k��,7.7,85.8,0,0,0,0
2023-04-03T00:19:00+09:00,0.7,���k��,2,���k��,7.7,85.5,0,0,0,0
2023-04-03T00:20:00+09:00,0.7,���k��,2,���k��,7.6,85.5,0,0,0,0
2023-04-03T00:21:00+09:00,0.7,���k��,2,���k��,7.4,85.2,0,0,0,0
2023-04-03T00:22:00+09:00,0.8,���k��,2,���k��,7.8,86.4,0,0,0,0
2023-04-03T00:23:00+09:00,0.8,���k��,2,���k��,7.9,86.8,0,0,0,0
2023-04-03T00:24:00+09:00,0.8,���k��,2,���k��,7.7,85.8,0,0,0,0
2023-04-03T00:25:00+09:00,0.7,���k��,1.6,��,7.5,84.9,0,0,0,0
2023-04-03T00:26:00+09:00,0.6,���k��,1.5,��,7.3,84.8,0,0,0,0
2023-04-03T00:27:00+09:00,0.5,���k��,1.5,��,7.5,85.8,0,0,0,0
2023-04-03T00:28:00+09:00,0.5,���k��,1.5,��,7.4,86,0,0,0,0
2023-04-03T00:29:00+09:00,0.5,�k��,1.5,��,7.2,85.9,0,0,0,0
2023-04-03T00:30:00+09:00,0.5,�k��,1.5,��,7.4,86.2,0,0,0,0
2023-04-03T00:31:00+09:00,0.5,���k��,1.5,��,7.8,88.1,0,0,0,0
2023-04-03T00:32:00+09:00,0.5,�k��,1.5,��,7.9,88.2,0,0,0,0
2023-04-03T00:33:00+09:00,0.5,�k,1.5,��,7.5,86.1,0,0,0,0
2023-04-03T00:34:00+09:00,0.5,�k,1.5,��,7.1,84.6,0,0,0,0
2023-04-03T00:35:00+09:00,0.5,�k��,1.5,��,7.1,85.1,0,0,0,0
2023-04-03T00:36:00+09:00,0.5,�k��,1.5,��,7.2,86.5,0,0,0,0
2023-04-03T00:37:00+09:00,0.5,�k�k��,1.5,���k��,7.1,86.7,0,0,0,0
2023-04-03T00:38:00+09:00,0.6,�k�k��,1.9,��,7.1,87,0,0,0,0
2023-04-03T00:39:00+09:00,0.8,�k��,2.4,���k��,7.2,87.5,0,0,0,0
2023-04-03T00:40:00+09:00,0.8,���k��,2.4,���k��,7.4,88.1,0,0,0,0
2023-04-03T00:41:00+09:00,0.7,�k��,2.4,���k��,7.1,87.3,0,0,0,0
2023-04-03T00:42:00+09:00,0.7,�k��,2.4,���k��,6.9,86.8,0,0,0,0
2023-04-03T00:43:00+09:00,0.6,�k��,2.4,���k��,6.9,87,0,0,0,0
2023-04-03T00:44:00+09:00,0.6,���k��,2.4,���k��,6.9,87.3,0,0,0,0
2023-04-03T00:45:00+09:00,0.6,���k��,2.4,���k��,7.1,88.3,0,0,0,0
2023-04-03T00:46:00+09:00,0.7,���k��,2.4,���k��,7.3,89.1,0,0,0,0
2023-04-03T00:47:00+09:00,0.7,���k��,2.4,���k��,7.4,89.3,0,0,0,0
2023-04-03T00:48:00+09:00,0.6,���k��,2.4,���k��,7.3,88.9,0,0,0,0
2023-04-03T00:49:00+09:00,0.4,�k��,1.6,���쓌,7,87.5,0,0,0,0
2023-04-03T00:50:00+09:00,0.4,�k�k��,1.4,��,6.8,86.8,0,0,0,0
2023-04-03T00:51:00+09:00,0.4,�k��,1.4,��,6.8,87.3,0,0,0,0
2023-04-03T00:52:00+09:00,0.4,���k��,1.4,��,7.1,88.3,0,0,0,0
2023-04-03T00:53:00+09:00,0.3,���k��,1.4,��,7.2,88.9,0,0,0,0
2023-04-03T00:54:00+09:00,0.4,���k��,1.4,��,7.2,88.7,0,0,0,0
2023-04-03T00:55:00+09:00,0.4,���k��,1.4,��,7.6,89.6,0,0,0,0
2023-04-03T00:56:00+09:00,0.4,��,1.4,��,7.8,89.9,0,0,0,0
2023-04-03T00:57:00+09:00,0.3,��,1.3,��,7.6,88.5,0,0,0,0
2023-04-03T00:58:00+09:00,0.4,���쓌,1.3,��,7.5,86.9,0,0,0,0
2023-04-03T00:59:00+09:00,0.4,�쓌,1.3,��,7.2,86,0,0,0,0
2023-04-03T01:00:00+09:00,0.4,��쓌,1.3,��,7.1,85.8,0,0,0,0
2023-04-03T01:01:00+09:00,0.4,��쓌,1.3,��,6.9,85.9,0,0,0,0
2023-04-03T01:02:00+09:00,0.4,��쓌,1.3,��,6.9,86.6,0,0,0,0
2023-04-03T01:03:00+09:00,0.4,�쓌,1.4,���쓌,7.2,87.9,0,0,0,0
2023-04-03T01:04:00+09:00,0.5,�쓌,1.5,���쓌,7.2,88.9,0,0,0,0
2023-04-03T01:05:00+09:00,0.5,���쓌,1.5,���쓌,7.4,88.9,0,0,0,0
2023-04-03T01:06:00+09:00,0.4,��,1.5,���쓌,7.1,88.1,0,0,0,0
2023-04-03T01:07:00+09:00,0.4,���쓌,1.5,���쓌,7.3,88.1,0,0,0,0
2023-04-03T01:08:00+09:00,0.4,��,1.5,���쓌,7.5,88.7,0,0,0,0
2023-04-03T01:09:00+09:00,0.4,��,1.5,���쓌,7.4,88.1,0,0,0,0
2023-04-03T01:10:00+09:00,0.4,���k��,1.5,���쓌,7.2,87.2,0,0,0,0
2023-04-03T01:11:00+09:00,0.4,���k��,1.5,���쓌,7.2,86.8,0,0,0,0
2023-04-03T01:12:00+09:00,0.5,��,1.5,���쓌,7.2,87.4,0,0,0,0
2023-04-03T01:13:00+09:00,0.4,��,1.5,���쓌,7.2,87.5,0,0,0,0
2023-04-03T01:14:00+09:00,0.4,��,1,���쓌,7.1,87.4,0,0,0,0
2023-04-03T01:15:00+09:00,0.4,���쓌,1,���쓌,7.2,87.6,0,0,0,0
2023-04-03T01:16:00+09:00,0.4,���쓌,1,���쓌,7.3,87.9,0,0,0,0
2023-04-03T01:17:00+09:00,0.4,��,0.9,���쓌,7.2,87.7,0,0,0,0
2023-04-03T01:18:00+09:00,0.4,��,0.9,���쓌,7,86.9,0,0,0,0
2023-04-03T01:19:00+09:00,0.4,��,0.9,���쓌,7.1,87.4,0,0,0,0
2023-04-03T01:20:00+09:00,0.5,��,1.1,��,7.2,87.9,0,0,0,0
2023-04-03T01:21:00+09:00,0.5,��,1.1,��,7.4,88.8,0,0,0,0
2023-04-03T01:22:00+09:00,0.5,��,1.1,��,7.3,88.6,0,0,0,0
2023-04-03T01:23:00+09:00,0.5,���k��,1.1,��,7,87.3,0,0,0,0
2023-04-03T01:24:00+09:00,0.5,���k��,1.1,��,6.7,86.5,0,0,0,0
2023-04-03T01:25:00+09:00,0.6,�k��,1.1,��,6.8,87.2,0,0,0,0
2023-04-03T01:26:00+09:00,0.6,�k��,1.1,��,6.7,87.8,0,0,0,0
2023-04-03T01:27:00+09:00,0.6,�k��,1.1,��,6.6,87.8,0,0,0,0
2023-04-03T01:28:00+09:00,0.5,�k��,1.1,��,6.7,88.6,0,0,0,0
2023-04-03T01:29:00+09:00,0.5,�k�k��,1.1,��,6.7,88.9,0,0,0,0
2023-04-03T01:30:00+09:00,0.5,�k�k��,1.1,���k��,6.8,89.2,0,0,0,0
2023-04-03T01:31:00+09:00,0.4,�k�k��,1.1,���k��,6.8,89.7,0,0,0,0
2023-04-03T01:32:00+09:00,0.4,�k�k��,1.1,���k��,6.9,89.8,0,0,0,0
2023-04-03T01:33:00+09:00,0.4,�k�k��,1.1,���k��,6.7,89.4,0,0,0,0
2023-04-03T01:34:00+09:00,0.4,�k�k��,1.1,���k��,6.8,89.6,0,0,0,0
2023-04-03T01:35:00+09:00,0.4,�k�k��,0.8,���k��,6.9,90,0,0,0,0
2023-04-03T01:36:00+09:00,0.4,�k�k��,0.8,���k��,6.9,90.2,0,0,0,0
2023-04-03T01:37:00+09:00,0.4,�k��,0.8,���k��,6.9,90.1,0,0,0,0
2023-04-03T01:38:00+09:00,0.4,�k��,0.8,���k��,7.1,90.2,0,0,0,0
2023-04-03T01:39:00+09:00,0.3,���k��,0.8,���k��,7.2,90.3,0,0,0,0
2023-04-03T01:40:00+09:00,0.3,���k��,0.8,���k��,7,89.7,0,0,0,0
2023-04-03T01:41:00+09:00,0.3,��,1,��,7,89.3,0,0,0,0
2023-04-03T01:42:00+09:00,0.4,��,1,��,6.9,89.3,0,0,0,0
2023-04-03T01:43:00+09:00,0.4,��,1,��,6.9,89.1,0,0,0,0
2023-04-03T01:44:00+09:00,0.4,���쓌,1.2,��,6.9,89,0,0,0,0
2023-04-03T01:45:00+09:00,0.4,���쓌,1.2,��,7.3,90.2,0,0,0,0
2023-04-03T01:46:00+09:00,0.5,���쓌,1.2,��,7.3,90.2,0,0,0,0
2023-04-03T01:47:00+09:00,0.5,���쓌,1.2,��,7.2,89.6,0,0,0,0
2023-04-03T01:48:00+09:00,0.4,���쓌,1.2,��,7.1,89,0,0,0,0
2023-04-03T01:49:00+09:00,0.4,�쓌,1.2,��,7.1,88.6,0,0,0,0
2023-04-03T01:50:00+09:00,0.5,��,1.2,��,6.9,88.3,0,0,0,0
2023-04-03T01:51:00+09:00,0.5,��쐼,1.2,��,6.7,88.1,0,0,0,0
2023-04-03T01:52:00+09:00,0.5,��,1.2,��,6.7,88.4,0,0,0,0
2023-04-03T01:53:00+09:00,0.5,��,1.2,��,6.8,89,0,0,0,0
2023-04-03T01:54:00+09:00,0.4,��쐼,1.2,��,6.8,89.7,0,0,0,0
2023-04-03T01:55:00+09:00,0.4,�쐼,0.9,��,6.8,90,0,0,0,0
2023-04-03T01:56:00+09:00,0.3,�쐼,0.8,��쐼,6.8,90.2,0,0,0,0
2023-04-03T01:57:00+09:00,0.4,�쐼,0.8,��쐼,6.7,90.3,0,0,0,0
2023-04-03T01:58:00+09:00,0.4,��쐼,0.8,��쐼,6.8,90.6,0,0,0,0
2023-04-03T01:59:00+09:00,0.5,�쐼,0.8,��쐼,6.8,90.9,0,0,0,0
2023-04-03T02:00:00+09:00,0.4,�쐼,0.8,��,6.8,91,0,0,0,0
2023-04-03T02:01:00+09:00,0.4,�쐼,0.9,���쓌,6.9,91,0,0,0,0
2023-04-03T02:02:00+09:00,0.4,�쐼,0.9,���쓌,7.1,91.5,0,0,0,0
2023-04-03T02:03:00+09:00,0.4,���쐼,0.9,���쓌,7.1,91.4,0,0,0,0
2023-04-03T02:04:00+09:00,0.4,���쐼,0.9,���쓌,7,90.9,0,0,0,0
2023-04-03T02:05:00+09:00,0.4,�쐼,0.9,���쓌,7.1,90.6,0,0,0,0
2023-04-03T02:06:00+09:00,0.4,���쐼,0.9,���쓌,7.3,91,0,0,0,0
2023-04-03T02:07:00+09:00,0.4,��,0.9,���쓌,7.3,90.8,0,0,0,0
2023-04-03T02:08:00+09:00,0.4,��,1.3,��,7.2,90.1,0,0,0,0
2023-04-03T02:09:00+09:00,0.4,���k��,1.6,��,7.3,90,0,0,0,0
2023-04-03T02:10:00+09:00,0.5,���k��,1.6,��,7.4,89.7,0,0,0,0
2023-04-03T02:11:00+09:00,0.5,�k�k��,1.6,��,7.4,89.7,0,0,0,0
2023-04-03T02:12:00+09:00,0.5,�k�k��,1.6,��,7.4,89.2,0,0,0,0
2023-04-03T02:13:00+09:00,0.4,�k��,1.6,��,7.3,88.7,0,0,0,0
2023-04-03T02:14:00+09:00,0.5,���k��,1.6,��,7.3,88.3,0,0,0,0
2023-04-03T02:15:00+09:00,0.5,���k��,1.6,��,7.5,88.7,0,0,0,0
2023-04-03T02:16:00+09:00,0.5,��,1.6,��,7.6,88.7,0,0,0,0
2023-04-03T02:17:00+09:00,0.6,���쓌,1.6,��,7.5,88.1,0,0,0,0
2023-04-03T02:18:00+09:00,0.5,���쓌,1.6,��,7.4,87.6,0,0,0,0
2023-04-03T02:19:00+09:00,0.5,�쓌,1.5,��,7.3,87.5,0,0,0,0
2023-04-03T02:20:00+09:00,0.4,��쐼,1.2,��,7.2,87.5,0,0,0,0
2023-04-03T02:21:00+09:00,0.4,��쓌,1.2,��,7.1,87.7,0,0,0,0
2023-04-03T02:22:00+09:00,0.4,�쓌,1.2,��,7.2,88.5,0,0,0,0
2023-04-03T02:23:00+09:00,0.4,���쓌,1.2,��,7.3,89,0,0,0,0
2023-04-03T02:24:00+09:00,0.5,���쓌,1.6,���k��,7.5,89.5,0,0,0,0
2023-04-03T02:25:00+09:00,0.5,���쓌,1.6,���k��,7.5,89.4,0,0,0,0
2023-04-03T02:26:00+09:00,0.5,���쓌,1.6,���k��,7.5,89,0,0,0,0
2023-04-03T02:27:00+09:00,0.5,��,1.6,���k��,7.5,88.8,0,0,0,0
2023-04-03T02:28:00+09:00,0.5,��,1.6,���k��,7.6,88.6,0,0,0,0
2023-04-03T02:29:00+09:00,0.5,���쓌,1.6,���k��,7.6,88.4,0,0,0,0
2023-04-03T02:30:00+09:00,0.6,��,1.6,���k��,7.6,88.1,0,0,0,0
2023-04-03T02:31:00+09:00,0.7,��,1.6,���k��,7.6,87.7,0,0,0,0
2023-04-03T02:32:00+09:00,0.7,��,1.6,���k��,7.7,87.4,0,0,0,0
2023-04-03T02:33:00+09:00,0.8,��,1.7,�k��,7.7,87,0,0,0,0
2023-04-03T02:34:00+09:00,0.9,��,2,��,7.7,86.6,0,0,0,0
2023-04-03T02:35:00+09:00,0.9,��,2,��,7.8,86.4,0,0,0,0
2023-04-03T02:36:00+09:00,0.9,��,2,��,7.8,86.1,0,0,0,0
2023-04-03T02:37:00+09:00,0.9,��,2,��,7.6,85.6,0,0,0,0
2023-04-03T02:38:00+09:00,0.8,���k��,2,��,7.4,85.1,0,0,0,0
2023-04-03T02:39:00+09:00,0.8,���k��,2,��,7.6,85.8,0,0,0,0
2023-04-03T02:40:00+09:00,0.8,���k��,2,��,7.7,86.6,0,0,0,0
2023-04-03T02:41:00+09:00,0.7,���k��,2,��,7.6,86,0,0,0,0
2023-04-03T02:42:00+09:00,0.7,���k��,2,��,7.7,86,0,0,0,0
2023-04-03T02:43:00+09:00,0.6,�k��,2,��,7.8,86.2,0,0,0,0
2023-04-03T02:44:00+09:00,0.6,�k��,1.8,�k��,7.8,86,0,0,0,0
2023-04-03T02:45:00+09:00,0.5,�k��,1.2,���k��,7.9,85.8,0,0,0,0
2023-04-03T02:46:00+09:00,0.5,�k��,1.2,���k��,7.9,85.4,0,0,0,0
2023-04-03T02:47:00+09:00,0.5,���k��,1.2,���k��,7.9,84.7,0,0,0,0
2023-04-03T02:48:00+09:00,0.6,���k��,1.2,���k��,8,84.4,0,0,0,0
2023-04-03T02:49:00+09:00,0.5,���k��,1.2,���k��,8,84.2,0,0,0,0
2023-04-03T02:50:00+09:00,0.6,���k��,0.9,���쓌,8.1,84.1,0,0,0,0
2023-04-03T02:51:00+09:00,0.6,���k��,1.5,��,8,83.7,0,0,0,0
2023-04-03T02:52:00+09:00,0.7,���k��,1.5,��,8.2,83.5,0,0,0,0
2023-04-03T02:53:00+09:00,0.7,���k��,1.5,��,8.1,82.7,0,0,0,0
2023-04-03T02:54:00+09:00,0.7,��,1.5,��,8.1,82.5,0,0,0,0
2023-04-03T02:55:00+09:00,0.8,��,1.6,���쓌,8,82.2,0,0,0,0
2023-04-03T02:56:00+09:00,1,��,2.3,��,8.1,82.2,0,0,0,0
2023-04-03T02:57:00+09:00,,,,,,,,,,
2023-04-03T02:58:00+09:00,1.2,��,2.7,���k��,8.2,82,0,0,0,0
2023-04-03T02:59:00+09:00,1.3,��,2.7,���k��,8.3,81.6,0,0,0,0
2023-04-03T03:00:00+09:00,1.5,��,3.5,���k��,8.2,81.3,0,0,0,0
2023-04-03T03:01:00+09:00,1.7,��,3.7,�k��,8.3,81.1,0,0,0,0
2023-04-03T03:02:00+09:00,1.9,��,3.7,�k��,8.2,81,0,0,0,0
2023-04-03T03:03:00+09:00,2,��,3.7,�k��,8.2,80.7,0,0,0,0
2023-04-03T03:04:00+09:00,2.1,���k��,3.7,�k��,8.3,80.7,0,0,0,0
2023-04-03T03:05:00+09:00,2.2,���k��,3.7,�k��,8.3,80.5,0,0,0,0
2023-04-03T03:06:00+09:00,2.2,���k��,3.7,�k��,8.3,80.4,0,0,0,0
2023-04-03T03:07:00+09:00,2.1,���k��,3.7,�k��,8.3,80.2,0,0,0,0
2023-04-03T03:08:00+09:00,2.2,���k��,3.7,�k��,8.4,80,0,0,0,0
2023-04-03T03:09:00+09:00,2.2,���k��,3.7,�k��,8.4,79.9,0,0,0,0
2023-04-03T03:10:00+09:00,2.1,�k��,3.7,�k��,8.5,79.6,0,0,0,0
2023-04-03T03:11:00+09:00,2.1,�k��,4.2,�k��,8.5,79.2,0,0,0,0
2023-04-03T03:12:00+09:00,2,�k��,4.2,�k��,8.8,78.9,0,0,0,0
2023-04-03T03:13:00+09:00,2.1,�k��,4.2,�k��,8.7,78.1,0,0,0,0
2023-04-03T03:14:00+09:00,2.1,�k��,4.2,�k��,8.7,77.9,0,0,0,0
2023-04-03T03:15:00+09:00,2.2,�k�k��,4.2,�k��,8.7,77.5,0,0,0,0
2023-04-03T03:16:00+09:00,2.3,�k�k��,4.2,�k��,8.7,77.8,0,0,0,0
2023-04-03T03:17:00+09:00,2.4,�k�k��,4.2,�k��,8.9,78,0,0,0,0
2023-04-03T03:18:00+09:00,2.5,�k�k��,4.2,�k��,8.8,77.5,0,0,0,0
2023-04-03T03:19:00+09:00,2.6,�k�k��,4.2,�k��,8.8,77.3,0,0,0,0
2023-04-03T03:20:00+09:00,2.8,�k�k��,5.6,�k�k��,9,77.2,0,0,0,0
2023-04-03T03:21:00+09:00,2.9,�k,5.6,�k�k��,9.2,76.2,0,0,0,0
2023-04-03T03:22:00+09:00,2.9,�k,5.6,�k�k��,9.1,75.3,0,0,0,0
2023-04-03T03:23:00+09:00,2.9,�k,5.7,�k��,9,75.2,0,0,0,0
2023-04-03T03:24:00+09:00,3,�k,5.7,�k��,9.2,74.9,0,0,0,0
2023-04-03T03:25:00+09:00,3.1,�k,5.7,�k��,9.2,74.3,0,0,0,0
2023-04-03T03:26:00+09:00,3.1,�k,5.7,�k��,9.2,73.9,0,0,0,0
2023-04-03T03:27:00+09:00,3.1,�k,5.7,�k��,9.1,73.9,0,0,0,0
2023-04-03T03:28:00+09:00,3,�k,5.7,�k��,9,74.2,0,0,0,0
2023-04-03T03:29:00+09:00,3,�k,5.7,�k��,8.9,75,0,0,0,0
2023-04-03T03:30:00+09:00,3,�k,5.7,�k��,8.9,75.4,0,0,0,0
2023-04-03T03:31:00+09:00,2.9,�k,5.7,�k��,9,75.2,0,0,0,0
2023-04-03T03:32:00+09:00,3,�k,5.7,�k��,9,74.8,0,0,0,0
2023-04-03T03:33:00+09:00,3,�k,5,�k,9.1,74.5,0,0,0,0
2023-04-03T03:34:00+09:00,3,�k,4.6,�k��,9.1,74.2,0,0,0,0
2023-04-03T03:35:00+09:00,3,�k,4.9,�k�k��,9.2,73.6,0,0,0,0
2023-04-03T03:36:00+09:00,3,�k,4.9,�k�k��,9.1,73,0,0,0,0
2023-04-03T03:37:00+09:00,2.9,�k,4.9,�k�k��,9.1,72.9,0,0,0,0
2023-04-03T03:38:00+09:00,3,�k,4.9,�k�k��,9.1,72.8,0,0,0,0
2023-04-03T03:39:00+09:00,3.1,�k,7.1,�k��,9.2,72.5,0,0,0,0
2023-04-03T03:40:00+09:00,3.4,�k�k��,7.4,�k�k��,9.3,71.4,0,0,0,0
2023-04-03T03:41:00+09:00,3.5,�k�k��,7.4,�k�k��,9.3,70.5,0,0,0,0
2023-04-03T03:42:00+09:00,3.6,�k�k��,7.4,�k�k��,9.3,70.3,0,0,0,0
2023-04-03T03:43:00+09:00,3.5,�k�k��,7.4,�k�k��,9.2,70.3,0,0,0,0
2023-04-03T03:44:00+09:00,3.5,�k�k��,7.4,�k�k��,9.1,70.6,0,0,0,0
2023-04-03T03:45:00+09:00,3.6,�k,7.4,�k�k��,9.1,71,0,0,0,0
2023-04-03T03:46:00+09:00,3.8,�k,7.4,�k�k��,9.2,70.8,0,0,0,0
2023-04-03T03:47:00+09:00,3.9,�k,7.4,�k�k��,9.1,70.5,0,0,0,0
2023-04-03T03:48:00+09:00,3.9,�k,7.4,�k�k��,9.1,70.7,0,0,0,0
2023-04-03T03:49:00+09:00,3.8,�k,7.4,�k�k��,8.9,71.6,0,0,0,0
2023-04-03T03:50:00+09:00,3.5,�k,6.3,�k,9,72,0,0,0,0
2023-04-03T03:51:00+09:00,3.5,�k,6.3,�k,9,71.8,0,0,0,0
2023-04-03T03:52:00+09:00,3.4,�k,6.3,�k,9,71.2,0,0,0,0
2023-04-03T03:53:00+09:00,3.5,�k,6.3,�k,9.1,71,0,0,0,0
2023-04-03T03:54:00+09:00,3.6,�k,6.3,�k,9.2,70.5,0,0,0,0
2023-04-03T03:55:00+09:00,3.5,�k,6.3,�k,9.2,70,0,0,0,0
2023-04-03T03:56:00+09:00,3.4,�k,5.8,�k�k��,9.1,70,0,0,0,0
2023-04-03T03:57:00+09:00,3.4,�k,5.8,�k�k��,9.1,70.1,0,0,0,0
2023-04-03T03:58:00+09:00,3.4,�k,5.8,�k�k��,9,70.4,0,0,0,0
2023-04-03T03:59:00+09:00,3.4,�k,5.8,�k�k��,9.1,70.7,0,0,0,0
2023-04-03T04:00:00+09:00,3.4,�k,5.8,�k�k��,9,70.8,0,0,0,0
2023-04-03T04:01:00+09:00,3.4,�k,5.8,�k�k��,9.1,70.9,0,0,0,0
2023-04-03T04:02:00+09:00,3.5,�k,5.8,�k�k��,9.1,70.7,0,0,0,0
2023-04-03T04:03:00+09:00,3.6,�k,5.8,�k�k��,9.1,70.7,0,0,0,0
2023-04-03T04:04:00+09:00,3.5,�k,5.2,�k,9,70.7,0,0,0,0
2023-04-03T04:05:00+09:00,3.5,�k,5.2,�k,9,70.9,0,0,0,0
2023-04-03T04:06:00+09:00,3.5,�k,5.2,�k,9.1,70.9,0,0,0,0
2023-04-03T04:07:00+09:00,3.4,�k,5.2,�k,9,70.8,0,0,0,0
2023-04-03T04:08:00+09:00,3.4,�k,5.2,�k,9,70.8,0,0,0,0
2023-04-03T04:09:00+09:00,3.4,�k,5.2,�k,9.1,70.4,0,0,0,0
2023-04-03T04:10:00+09:00,3.5,�k,5.2,�k,9,70.3,0,0,0,0
2023-04-03T04:11:00+09:00,3.5,�k,6.2,�k,9.1,70.3,0,0,0,0
2023-04-03T04:12:00+09:00,3.6,�k,6.2,�k,9.1,69.9,0,0,0,0
2023-04-03T04:13:00+09:00,3.7,�k,6.2,�k,9.1,69.7,0,0,0,0
2023-04-03T04:14:00+09:00,3.9,�k,6.3,�k,9.1,69.7,0,0,0,0
2023-04-03T04:15:00+09:00,4,�k,6.3,�k,9.2,69.3,0,0,0,0
2023-04-03T04:16:00+09:00,4,�k,6.3,�k,9.1,69.1,0,0,0,0
2023-04-03T04:17:00+09:00,4.2,�k,6.3,�k,9.1,69.2,0,0,0,0
2023-04-03T04:18:00+09:00,4.2,�k,6.3,�k,9,69.3,0,0,0,0
2023-04-03T04:19:00+09:00,4.4,�k,6.3,�k,9.1,69.4,0,0,0,0
2023-04-03T04:20:00+09:00,4.4,�k,6.3,�k,9.1,69.2,0,0,0,0
2023-04-03T04:21:00+09:00,4.4,�k,6.3,�k,9.1,69,0,0,0,0
2023-04-03T04:22:00+09:00,4.3,�k,6.3,�k,9.2,68.8,0,0,0,0
2023-04-03T04:23:00+09:00,4.3,�k,6.3,�k,9.1,68.6,0,0,0,0
2023-04-03T04:24:00+09:00,4.3,�k,6.1,�k�k��,9.2,68.7,0,0,0,0
2023-04-03T04:25:00+09:00,4.2,�k,6.1,�k�k��,9.1,68.6,0,0,0,0
2023-04-03T04:26:00+09:00,4.3,�k,6.1,�k�k��,9.1,68.5,0,0,0,0
2023-04-03T04:27:00+09:00,4.2,�k,6.1,�k�k��,9.1,68.6,0,0,0,0
2023-04-03T04:28:00+09:00,4.2,�k,6.1,�k�k��,9,68.9,0,0,0,0
2023-04-03T04:29:00+09:00,4.3,�k,6.2,�k,9.1,69,0,0,0,0
2023-04-03T04:30:00+09:00,4.2,�k,6.2,�k,9,68.9,0,0,0,0
2023-04-03T04:31:00+09:00,4.2,�k,6.2,�k,9,69.1,0,0,0,0
2023-04-03T04:32:00+09:00,4.2,�k,6.2,�k,9,69,0,0,0,0
2023-04-03T04:33:00+09:00,4.2,�k,6.2,�k,9,69,0,0,0,0
2023-04-03T04:34:00+09:00,4.2,�k,6.2,�k,9,69.3,0,0,0,0
2023-04-03T04:35:00+09:00,4.2,�k,6.2,�k,9,69.3,0,0,0,0
2023-04-03T04:36:00+09:00,4,�k,6.2,�k,9,69.2,0,0,0,0
2023-04-03T04:37:00+09:00,4,�k,6.2,�k,8.9,69.4,0,0,0,0
2023-04-03T04:38:00+09:00,3.9,�k,6.2,�k,8.9,69.7,0,0,0,0
2023-04-03T04:39:00+09:00,3.7,�k,5.1,�k,8.9,69.9,0,0,0,0
2023-04-03T04:40:00+09:00,3.6,�k,5.1,�k,8.9,69.9,0,0,0,0
2023-04-03T04:41:00+09:00,3.5,�k,5.1,�k,8.9,69.8,0,0,0,0
2023-04-03T04:42:00+09:00,3.4,�k�k��,5.1,�k,9,69.7,0,0,0,0
2023-04-03T04:43:00+09:00,3.4,�k�k��,5.1,�k,8.9,69.5,0,0,0,0
2023-04-03T04:44:00+09:00,3.4,�k�k��,5.2,�k,8.9,69.6,0,0,0,0
2023-04-03T04:45:00+09:00,3.4,�k�k��,5.9,�k,8.9,69.6,0,0,0,0
2023-04-03T04:46:00+09:00,3.6,�k�k��,5.9,�k,8.9,69.8,0,0,0,0
2023-04-03T04:47:00+09:00,3.7,�k�k��,5.9,�k,8.9,69.9,0,0,0,0
2023-04-03T04:48:00+09:00,3.9,�k,5.9,�k,8.9,69.4,0,0,0,0
2023-04-03T04:49:00+09:00,4,�k,5.9,�k,9,69,0,0,0,0
2023-04-03T04:50:00+09:00,4.1,�k,6.3,�k�k��,9.1,68.8,0,0,0,0
2023-04-03T04:51:00+09:00,4.2,�k,6.3,�k�k��,9,68.6,0,0,0,0
2023-04-03T04:52:00+09:00,4.2,�k,6.3,�k�k��,8.9,68.9,0,0,0,0
2023-04-03T04:53:00+09:00,4.3,�k,6.3,�k�k��,8.9,69.2,0,0,0,0
2023-04-03T04:54:00+09:00,4.3,�k,6.3,�k�k��,9,69.1,0,0,0,0
2023-04-03T04:55:00+09:00,4.2,�k,6.3,�k�k��,9,68.9,0,0,0,0
2023-04-03T04:56:00+09:00,4.1,�k,6.3,�k�k��,8.9,69.1,0,0,0,0
2023-04-03T04:57:00+09:00,4.1,�k,6.3,�k�k��,9,69.3,0,0,0,0
2023-04-03T04:58:00+09:00,4,�k,6.3,�k�k��,9,69.3,0,0,0,0
2023-04-03T04:59:00+09:00,3.9,�k,6.3,�k�k��,8.8,69.5,0,0,0,0
2023-04-03T05:00:00+09:00,3.9,�k,5.4,�k�k��,8.9,69.6,0,0,0,0
2023-04-03T05:01:00+09:00,3.9,�k,5.4,�k�k��,8.9,69.7,0,0,0,0
2023-04-03T05:02:00+09:00,3.8,�k,5.4,�k�k��,8.9,69.7,0,0,0,0
2023-04-03T05:03:00+09:00,3.7,�k,5.4,�k�k��,8.9,69.7,0,0,0,0
2023-04-03T05:04:00+09:00,3.6,�k,5.2,�k�k��,8.9,69.9,0,0,0,0
2023-04-03T05:05:00+09:00,3.4,�k,5.2,�k�k��,8.9,70,0,0,0,0
2023-04-03T05:06:00+09:00,3.3,�k,5.2,�k�k��,9,69.7,0,0,0,0
2023-04-03T05:07:00+09:00,3.1,�k�k��,4.9,�k,8.9,69.5,0,0,0,0
2023-04-03T05:08:00+09:00,2.9,�k�k��,4.9,�k,8.9,69.6,0,0,0,0
2023-04-03T05:09:00+09:00,2.8,�k�k��,4.9,�k,8.9,69.7,0,0,0,0
2023-04-03T05:10:00+09:00,2.5,�k�k��,4.3,�k,8.9,69.9,0,0,0,0
2023-04-03T05:11:00+09:00,2.4,�k�k��,4.3,�k,8.9,69.9,0,0,0,0
2023-04-03T05:12:00+09:00,2.3,�k�k��,4.3,�k,8.9,69.7,0,0,0,0
2023-04-03T05:13:00+09:00,2.3,�k�k��,3.5,�k�k��,9,69.6,0,0,0,0
2023-04-03T05:14:00+09:00,2.2,�k�k��,3.4,�k��,9,69.4,0,0,0,0
2023-04-03T05:15:00+09:00,2.3,�k��,3.4,�k��,9,69.4,0,0,0,0
2023-04-03T05:16:00+09:00,2.3,�k��,3.4,�k��,9,69.3,0,0,0,0
2023-04-03T05:17:00+09:00,2.3,�k��,3.4,�k��,9,69.3,0,0,0,0
2023-04-03T05:18:00+09:00,2.3,�k��,3.4,�k��,9.1,69.2,0,0,0,0
2023-04-03T05:19:00+09:00,2.3,�k��,4.3,�k��,9.1,69,0,0,0,0
2023-04-03T05:20:00+09:00,2.4,�k��,4.3,�k��,9.1,68.9,0,0,0,0
2023-04-03T05:21:00+09:00,2.4,�k��,4.3,�k��,9,68.8,0,0,0,0
2023-04-03T05:22:00+09:00,2.3,�k��,4.3,�k��,9.1,69,0,0,0,0
2023-04-03T05:23:00+09:00,2.4,�k��,4.3,�k��,9,69,0,0,0,0
2023-04-03T05:24:00+09:00,2.3,�k��,4.3,�k��,9,69,0,0,0,0
2023-04-03T05:25:00+09:00,2.3,�k��,4.3,�k��,9,69.1,0,0,0,0
2023-04-03T05:26:00+09:00,2.3,�k��,4.3,�k��,9,69.2,0,0,0,0
2023-04-03T05:27:00+09:00,2.3,�k��,4.3,�k��,9,69.3,0,0,0,0
2023-04-03T05:28:00+09:00,2.4,�k��,4.3,�k��,9,69.1,0,0,0,0
2023-04-03T05:29:00+09:00,2.4,�k�k��,4,�k�k��,9,69.2,0,0,0,0
2023-04-03T05:30:00+09:00,2.3,�k�k��,4,�k�k��,8.9,69.4,0,0,0,0
2023-04-03T05:31:00+09:00,2.3,�k�k��,4,�k�k��,9,69.8,0,0,0,0
2023-04-03T05:32:00+09:00,2.3,�k�k��,4,�k�k��,9,69.8,0,0,0,0
2023-04-03T05:33:00+09:00,2.2,�k�k��,4,�k�k��,8.9,69.6,0,0,0,0
2023-04-03T05:34:00+09:00,2.1,�k�k��,4,�k�k��,8.9,69.9,0,0,0,0
2023-04-03T05:35:00+09:00,2.1,�k�k��,4,�k�k��,8.9,70.1,0,0,0,0
2023-04-03T05:36:00+09:00,2.2,�k�k��,4,�k�k��,8.9,69.9,0,0,0,0
2023-04-03T05:37:00+09:00,2.1,�k�k��,4,�k�k��,8.9,69.7,0,0,0,0
2023-04-03T05:38:00+09:00,2.1,�k�k��,4.2,�k�k��,8.9,69.6,0,0,0,0
2023-04-03T05:39:00+09:00,2.1,�k�k��,4.2,�k�k��,8.9,69.9,0,0,0,0
2023-04-03T05:40:00+09:00,2.2,�k�k��,4.2,�k�k��,8.9,69.9,0,0,0,0
2023-04-03T05:41:00+09:00,2.3,�k,4.2,�k�k��,8.8,69.9,0,0,0,0
2023-04-03T05:42:00+09:00,2.4,�k,4.2,�k�k��,8.9,70.1,0,0,0,0
2023-04-03T05:43:00+09:00,2.5,�k,4.2,�k�k��,8.9,70.2,0,0,0,0
2023-04-03T05:44:00+09:00,2.6,�k,4.2,�k�k��,8.9,70.1,0,0,0,0
2023-04-03T05:45:00+09:00,2.7,�k,4.2,�k�k��,8.9,69.8,0,0,0,0
2023-04-03T05:46:00+09:00,2.7,�k�k��,4.2,�k�k��,8.9,69.8,0,0,0,0
2023-04-03T05:47:00+09:00,2.7,�k�k��,4.2,�k�k��,8.9,69.8,0,0,0,0
2023-04-03T05:48:00+09:00,2.7,�k�k��,3.9,�k,8.9,69.8,0,0,0,0
2023-04-03T05:49:00+09:00,2.6,�k�k��,3.9,�k,8.9,69.8,0,0,0,0
2023-04-03T05:50:00+09:00,2.6,�k�k��,3.9,�k,8.9,69.8,0,0,0,0
2023-04-03T05:51:00+09:00,2.5,�k�k��,3.9,�k,8.9,69.8,0,0,0,0
2023-04-03T05:52:00+09:00,2.4,�k�k��,3.8,�k�k��,8.9,69.8,0,0,0,0
2023-04-03T05:53:00+09:00,2.3,�k�k��,3.8,�k�k��,8.9,69.8,0,0,0,0
2023-04-03T05:54:00+09:00,2.2,�k�k��,3.8,�k�k��,8.9,69.8,0,0,0,0
2023-04-03T05:55:00+09:00,2.1,�k�k��,3.6,�k�k��,8.9,69.8,0,0,0,0
2023-04-03T05:56:00+09:00,2.1,�k�k��,3.6,�k�k��,8.9,69.7,0,0,0,0
2023-04-03T05:57:00+09:00,2.2,�k�k��,3.6,�k�k��,8.9,69.7,0,0,0,0
2023-04-03T05:58:00+09:00,2.2,�k�k��,3.2,�k�k��,8.9,69.7,0,0,0,0
2023-04-03T05:59:00+09:00,2.3,�k�k��,4.2,�k,8.9,69.6,0,0,0,0
2023-04-03T06:00:00+09:00,2.3,�k�k��,4.2,�k,8.9,69.5,0,0,0,0
2023-04-03T06:01:00+09:00,2.4,�k�k��,4.2,�k,8.9,69.6,0,0,0,0
2023-04-03T06:02:00+09:00,2.4,�k�k��,4.2,�k,8.9,69.6,0,0,0,0
2023-04-03T06:03:00+09:00,2.4,�k�k��,4.2,�k,8.9,69.5,0,0,0,0
2023-04-03T06:04:00+09:00,2.4,�k�k��,4.2,�k,8.9,69.5,0,0,0,0
2023-04-03T06:05:00+09:00,2.4,�k�k��,4.2,�k,8.9,69.4,0,0,0,0
2023-04-03T06:06:00+09:00,2.3,�k�k��,4.2,�k,8.9,69.5,0,0,0,0
2023-04-03T06:07:00+09:00,2.3,�k�k��,4.2,�k,8.9,69.8,0,0,0,0
2023-04-03T06:08:00+09:00,2.3,�k�k��,4.2,�k,8.9,69.8,0,0,0,0
2023-04-03T06:09:00+09:00,2.2,�k�k��,4.2,�k,9,69.6,0,0,0,0
2023-04-03T06:10:00+09:00,2.2,�k�k��,3.3,�k�k��,8.9,69.5,0,0,0,0
2023-04-03T06:11:00+09:00,2.2,�k�k��,3.3,�k�k��,8.9,69.5,0,0,0,0
2023-04-03T06:12:00+09:00,2.2,�k�k��,3.3,�k�k��,8.9,69.8,0,0,0,0
2023-04-03T06:13:00+09:00,2.1,�k�k��,3.3,�k�k��,8.9,69.9,0,0,0,0
2023-04-03T06:14:00+09:00,2.2,�k�k��,3.3,�k�k��,8.9,69.8,0,0,0,0
2023-04-03T06:15:00+09:00,2.2,�k�k��,3.3,�k�k��,8.9,69.8,0,0,0,0
2023-04-03T06:16:00+09:00,2.2,�k�k��,3.3,�k�k��,9,69.5,0,0,0,0
2023-04-03T06:17:00+09:00,2.2,�k�k��,3.3,�k�k��,9,69.4,0,0,0,0
2023-04-03T06:18:00+09:00,2.1,�k�k��,3.3,�k�k��,8.9,69.5,0,0,0,0
2023-04-03T06:19:00+09:00,2,�k�k��,3,�k,8.9,69.5,0,0,0,0
2023-04-03T06:20:00+09:00,2,�k�k��,3,�k,9,69.7,0,0,0,0
2023-04-03T06:21:00+09:00,2,�k�k��,3,�k,8.9,69.8,0,0,0,0
2023-04-03T06:22:00+09:00,2,�k�k��,3,�k,9,69.7,0,0,0,0
2023-04-03T06:23:00+09:00,2,�k�k��,3,�k,9,69.5,0,0,0,0
2023-04-03T06:24:00+09:00,1.9,�k�k��,3,�k,9,69.4,0,0,0,0
2023-04-03T06:25:00+09:00,1.9,�k�k��,3,�k,9,69.2,0,0,0,0
2023-04-03T06:26:00+09:00,1.8,�k�k��,2.8,�k�k��,9.1,69.2,0,0,0,0
2023-04-03T06:27:00+09:00,1.9,�k�k��,3.1,�k�k��,9.1,69.2,0,0,0,0
2023-04-03T06:28:00+09:00,2,�k�k��,3.7,�k�k��,9.2,69.2,0,0,0,0
2023-04-03T06:29:00+09:00,2.2,�k�k��,3.7,�k�k��,9.2,68.8,0,0,0,0
2023-04-03T06:30:00+09:00,2.2,�k�k��,3.7,�k�k��,9.2,68.6,0,0,0,0
2023-04-03T06:31:00+09:00,2.2,�k�k��,3.7,�k�k��,9.2,68.9,0,0,0,0
2023-04-03T06:32:00+09:00,2.3,�k�k��,4.1,�k,9.2,68.9,0,0,0,0
2023-04-03T06:33:00+09:00,2.5,�k�k��,4.6,�k�k��,9.3,68.8,0,0,0,0
2023-04-03T06:34:00+09:00,2.6,�k�k��,4.8,�k,9.3,68.5,0,0,0,0
2023-04-03T06:35:00+09:00,2.6,�k�k��,4.8,�k,9.3,68.5,0,0,0,0
2023-04-03T06:36:00+09:00,2.7,�k�k��,5,�k�k��,9.2,68.7,0,0,0,0
2023-04-03T06:37:00+09:00,2.7,�k�k��,5,�k�k��,9.3,68.6,0,0,0,0